�N����,����,�~����,�C��,���x,�C��,����,���ϕ���,�ő�u�ԕ���,�ő厞����,���˗�,�I�_���x,�n�����x,�ő啗���N��,DTYPE
"18/04/05","00:10",0.0,10.7,82.9,1014.0,315.6,1.7,3.3,335.2,0.00,8.0,13.7,"00:05:36",1
"18/04/05","00:20",0.0,10.7,82.7,1014.2,328.7,2.6,5.4,322.6,0.00,7.9,13.8,"00:10:32",1
"18/04/05","00:30",0.0,10.7,82.8,1014.7,325.9,2.1,3.7,9.6,0.00,7.9,13.7,"00:27:54",1
"18/04/05","00:40",0.0,10.7,82.6,1014.9,328.5,3.0,4.8,335.8,0.00,7.9,13.7,"00:39:16",1
"18/04/05","00:50",0.0,10.6,82.8,1014.9,329.5,2.8,5.7,339.2,0.00,7.8,13.8,"00:49:44",1
"18/04/05","01:00",0.0,10.6,82.5,1014.9,322.0,2.3,4.5,341.0,0.00,7.8,13.7,"00:50:56",1
"18/04/05","01:10",0.0,10.6,82.2,1014.5,305.2,2.5,5.8,313.5,0.00,7.7,13.7,"01:01:12",1
"18/04/05","01:20",0.0,10.6,81.9,1015.2,316.1,2.1,4.9,325.7,0.00,7.7,13.5,"01:11:04",1
"18/04/05","01:30",0.0,10.6,81.9,1015.4,313.4,2.0,3.6,325.5,0.00,7.7,13.7,"01:28:08",1
"18/04/05","01:40",0.0,10.6,82.0,1014.7,320.9,2.7,5.4,341.2,0.00,7.7,13.6,"01:30:32",1
"18/04/05","01:50",0.0,10.5,82.3,1015.2,310.9,2.1,3.4,320.1,0.00,7.7,13.6,"01:48:00",1
"18/04/05","02:00",0.0,10.5,82.6,1014.7,318.7,2.3,3.7,320.5,0.00,7.7,13.4,"01:59:20",1
"18/04/05","02:10",0.0,10.4,82.9,1014.7,308.1,2.6,4.8,324.8,0.00,7.7,13.4,"02:07:44",1
"18/04/05","02:20",0.0,10.4,83.1,1014.9,311.3,2.7,4.2,309.1,0.00,7.7,13.4,"02:15:36",1
"18/04/05","02:30",0.0,10.3,82.9,1015.2,318.4,3.7,5.5,315.9,0.00,7.6,13.5,"02:27:44",1
"18/04/05","02:40",0.0,10.3,82.5,1015.2,319.1,3.7,6.3,332.1,0.00,7.5,13.3,"02:32:56",1
"18/04/05","02:50",0.0,10.2,82.2,1015.4,322.7,3.2,5.6,339.6,0.00,7.3,13.4,"02:46:40",1
"18/04/05","03:00",0.0,10.1,82.1,1015.4,328.8,4.0,7.5,331.8,0.00,7.2,13.1,"02:50:48",1
"18/04/05","03:10",0.0,10.1,82.6,1014.9,316.5,2.3,5.8,332.4,0.00,7.3,13.2,"03:00:02",1
"18/04/05","03:20",0.0,10.1,82.3,1015.4,331.0,3.7,6.8,324.0,0.00,7.3,13.4,"03:10:08",1
"18/04/05","03:30",0.0,10.0,82.0,1015.4,331.3,3.6,7.0,340.2,0.00,7.1,13.4,"03:22:08",1
"18/04/05","03:40",0.0,10.0,81.7,1015.4,321.3,4.0,6.8,329.9,0.00,7.1,13.1,"03:37:20",1
"18/04/05","03:50",0.0,9.9,81.4,1014.9,321.7,3.0,6.0,338.6,0.00,6.9,13.1,"03:47:04",1
"18/04/05","04:00",0.0,9.9,80.8,1015.2,324.1,3.6,7.5,335.4,0.00,6.8,13.1,"03:57:50",1
"18/04/05","04:10",0.0,9.9,80.4,1015.4,323.5,3.4,5.2,318.4,0.00,6.7,13.1,"04:03:36",1
"18/04/05","04:20",0.0,9.8,80.2,1014.9,322.0,3.4,5.9,339.3,0.00,6.6,13.0,"04:19:12",1
"18/04/05","04:30",0.0,9.8,80.3,1014.9,314.0,3.1,4.2,319.7,0.00,6.6,12.9,"04:23:28",1
"18/04/05","04:40",0.0,9.8,80.0,1014.9,326.3,3.6,6.5,340.8,0.00,6.6,13.0,"04:31:52",1
"18/04/05","04:50",0.0,9.7,80.2,1014.9,316.4,2.8,4.8,315.6,0.00,6.5,12.8,"04:44:16",1
"18/04/05","05:00",0.0,9.7,79.9,1015.2,317.7,2.7,4.4,333.8,0.00,6.4,12.8,"04:57:44",1
"18/04/05","05:10",0.0,9.7,80.0,1014.7,318.3,2.6,4.4,326.6,0.00,6.5,13.0,"05:09:12",1
"18/04/05","05:20",0.0,9.7,79.8,1015.6,321.5,3.1,5.1,337.7,0.00,6.4,12.8,"05:10:08",1
"18/04/05","05:30",0.0,9.6,79.6,1015.6,329.5,3.1,4.8,333.1,0.00,6.3,12.7,"05:26:08",1
"18/04/05","05:40",0.0,9.6,79.5,1015.2,312.8,2.2,4.3,319.8,0.00,6.3,12.6,"05:30:56",1
"18/04/05","05:50",0.0,9.6,79.4,1015.6,320.5,2.3,4.2,333.1,0.00,6.3,12.5,"05:40:02",1
"18/04/05","06:00",0.0,9.6,79.6,1015.2,331.9,2.8,4.9,336.8,0.00,6.3,12.7,"05:50:16",1
"18/04/05","06:10",0.0,9.5,79.5,1014.9,320.5,3.1,4.9,346.5,0.00,6.2,12.6,"06:04:40",1
"18/04/05","06:20",0.0,9.6,79.6,1015.4,326.4,3.2,5.1,335.2,0.00,6.3,12.4,"06:16:56",1
"18/04/05","06:30",0.0,9.6,79.3,1015.6,324.3,3.6,5.7,320.6,0.00,6.2,12.6,"06:27:12",1
"18/04/05","06:40",0.0,9.8,79.1,1015.9,335.5,3.2,5.1,326.9,0.00,6.4,12.6,"06:31:12",1
"18/04/05","06:50",0.0,9.8,78.6,1016.1,316.3,2.7,5.4,312.6,0.00,6.3,12.4,"06:44:56",1
"18/04/05","07:00",0.0,9.8,78.2,1016.1,331.7,2.7,5.9,348.6,0.01,6.2,12.6,"06:52:32",1
"18/04/05","07:10",0.0,9.8,77.9,1016.1,335.9,4.1,8.6,333.0,0.03,6.2,12.7,"07:03:12",1
"18/04/05","07:20",0.0,9.7,77.6,1016.4,328.9,4.0,6.7,329.9,0.03,6.0,12.6,"07:15:36",1
"18/04/05","07:30",0.0,9.8,77.3,1016.6,332.9,3.6,8.1,339.8,0.05,6.1,12.6,"07:29:22",1
"18/04/05","07:40",0.0,10.0,77.3,1016.6,325.4,3.6,6.5,319.9,0.07,6.3,12.7,"07:30:48",1
"18/04/05","07:50",0.0,10.2,76.3,1016.4,330.2,3.7,8.9,342.3,0.14,6.3,12.7,"07:46:40",1
"18/04/05","08:00",0.0,10.9,72.8,1016.8,332.3,2.3,5.1,332.4,0.18,6.3,12.7,"07:51:28",1
"18/04/05","08:10",0.0,11.0,74.1,1016.8,327.8,3.1,6.8,325.1,0.16,6.6,12.8,"08:05:20",1
"18/04/05","08:20",0.0,11.2,73.9,1016.6,335.3,3.9,6.5,323.6,0.24,6.8,12.9,"08:16:16",1
"18/04/05","08:30",0.0,10.9,73.8,1016.6,339.3,3.4,8.3,327.7,0.20,6.5,12.9,"08:28:56",1
"18/04/05","08:40",0.0,10.7,74.5,1016.6,332.3,3.1,6.2,315.3,0.14,6.4,12.8,"08:31:04",1
"18/04/05","08:50",0.0,11.0,74.3,1016.1,330.8,3.1,5.1,335.8,0.16,6.6,13.1,"08:48:00",1
"18/04/05","09:00",0.0,11.2,74.0,1016.4,334.8,3.2,7.1,337.1,0.16,6.8,13.1,"08:58:32",1
"18/04/05","09:10",0.0,11.3,73.3,1016.1,335.2,3.0,5.5,351.4,0.17,6.7,13.2,"09:03:04",1
"18/04/05","09:20",0.0,11.6,72.3,1016.1,342.5,2.3,4.1,336.0,0.18,6.8,13.3,"09:10:08",1
"18/04/05","09:30",0.0,11.7,71.5,1016.1,334.1,2.5,4.4,334.3,0.17,6.8,13.6,"09:22:40",1
"18/04/05","09:40",0.0,11.7,71.3,1015.9,332.8,3.1,5.4,333.9,0.16,6.7,13.6,"09:32:56",1
"18/04/05","09:50",0.0,12.4,70.1,1016.4,332.9,3.0,5.5,335.0,0.26,7.1,13.6,"09:40:40",1
"18/04/05","10:00",0.0,13.0,70.5,1016.4,338.6,3.0,4.9,334.1,0.37,7.8,13.7,"09:58:40",1
"18/04/05","10:10",0.0,13.4,67.4,1016.1,337.0,2.6,5.1,332.2,0.47,7.5,14.0,"10:00:24",1
"18/04/05","10:20",0.0,13.4,67.3,1016.1,320.1,2.7,4.4,326.1,0.43,7.5,14.4,"10:11:44",1
"18/04/05","10:30",0.0,13.2,67.2,1016.1,227.9,1.2,4.5,344.2,0.31,7.3,14.3,"10:20:16",1
"18/04/05","10:40",0.0,13.9,66.2,1015.6,267.0,1.3,3.3,317.4,0.34,7.7,14.7,"10:36:32",1
"18/04/05","10:50",0.0,14.1,64.5,1015.4,227.4,1.8,3.7,233.1,0.43,7.6,14.7,"10:42:40",1
"18/04/05","11:00",0.0,14.2,64.3,1015.2,251.6,1.8,3.9,221.3,0.34,7.6,14.9,"10:53:44",1
"18/04/05","11:10",0.0,14.5,64.7,1014.7,255.1,1.2,2.2,283.6,0.28,8.0,15.1,"11:00:56",1
"18/04/05","11:20",0.0,14.3,63.4,1014.9,189.4,1.3,2.8,153.5,0.38,7.5,15.2,"11:10:08",1
"18/04/05","11:30",0.0,14.7,62.1,1014.5,343.7,1.0,2.8,331.3,0.38,7.6,15.6,"11:26:48",1
"18/04/05","11:40",0.2,15.2,60.1,1014.2,315.5,1.1,3.2,345.7,0.33,7.6,15.7,"11:31:20",1
"18/04/05","11:50",0.0,15.0,59.1,1014.0,337.2,1.0,1.9,324.7,0.27,7.1,15.7,"11:44:08",1
"18/04/05","12:00",0.0,15.2,57.4,1014.0,318.2,1.2,3.4,340.6,0.25,6.9,16.0,"11:54:08",1
"18/04/05","12:10",0.0,15.3,57.7,1013.5,38.1,0.5,1.2,9.4,0.23,7.1,15.7,"12:08:32",1
"18/04/05","12:20",0.0,15.6,59.4,1013.3,321.9,1.0,2.0,357.6,0.19,7.8,15.9,"12:14:00",1
"18/04/05","12:30",0.0,15.2,58.7,1012.8,220.4,1.5,2.9,238.9,0.20,7.2,15.9,"12:24:48",1
"18/04/05","12:40",0.0,16.1,58.9,1012.3,112.7,1.0,2.1,134.6,0.31,8.1,16.0,"12:32:40",1
"18/04/05","12:50",0.0,16.7,56.6,1012.6,201.0,0.8,2.6,172.1,0.34,8.1,16.5,"12:42:24",1
"18/04/05","13:00",0.0,16.5,55.9,1012.1,207.0,1.1,2.4,237.9,0.36,7.7,16.5,"12:58:16",1
"18/04/05","13:10",0.0,17.0,55.4,1012.3,275.2,1.7,3.1,230.7,0.40,8.0,16.4,"13:03:44",1
"18/04/05","13:20",0.0,17.9,55.5,1011.9,280.7,1.3,2.7,267.2,0.45,8.9,16.7,"13:10:02",1
"18/04/05","13:30",0.0,17.5,53.7,1011.6,243.5,1.5,2.8,228.3,0.54,8.1,17.0,"13:24:32",1
"18/04/05","13:40",0.0,17.7,55.0,1011.6,166.9,0.8,1.8,129.3,0.31,8.6,17.1,"13:30:16",1
"18/04/05","13:50",0.0,17.9,54.3,1011.4,196.9,1.6,2.7,218.2,0.35,8.6,17.3,"13:41:12",1
"18/04/05","14:00",0.0,18.1,58.0,1011.4,227.1,1.2,3.2,234.4,0.30,9.8,17.4,"13:56:40",1
"18/04/05","14:10",0.0,17.4,55.5,1010.7,224.8,1.1,2.6,322.4,0.23,8.4,17.4,"14:00:56",1
"18/04/05","14:20",0.0,17.8,54.3,1010.7,255.1,0.7,2.0,337.9,0.23,8.5,17.5,"14:15:12",1
"18/04/05","14:30",0.0,17.5,55.1,1010.9,179.5,1.5,2.9,120.8,0.16,8.4,17.6,"14:24:00",1
"18/04/05","14:40",0.0,17.4,54.0,1010.9,237.5,1.0,1.7,236.0,0.10,8.0,17.4,"14:31:44",1
"18/04/05","14:50",0.0,17.7,55.5,1010.9,171.0,1.0,2.6,140.3,0.10,8.7,17.4,"14:43:44",1
"18/04/05","15:00",0.0,17.8,53.9,1010.7,202.3,0.3,1.2,141.4,0.12,8.4,17.2,"14:50:02",1
"18/04/05","15:10",0.0,18.1,53.9,1010.4,333.4,0.7,1.6,122.7,0.13,8.7,17.3,"15:04:24",1
"18/04/05","15:20",0.0,18.1,52.5,1010.7,75.6,0.7,2.2,119.6,0.12,8.3,17.1,"15:12:32",1
"18/04/05","15:30",0.0,18.5,51.3,1010.7,79.5,1.1,3.4,113.6,0.08,8.3,17.2,"15:26:32",1
"18/04/05","15:40",0.0,18.2,50.6,1010.4,87.9,1.3,3.5,122.3,0.07,7.8,17.2,"15:34:08",1
"18/04/05","15:50",0.0,18.1,52.8,1010.4,99.9,1.3,3.2,103.6,0.06,8.4,17.1,"15:40:24",1
"18/04/05","16:00",0.0,18.2,53.1,1010.4,87.2,0.8,2.2,121.1,0.07,8.5,17.2,"15:53:36",1
"18/04/05","16:10",0.0,18.1,53.9,1010.7,107.5,1.0,2.5,114.8,0.06,8.7,16.7,"16:07:36",1
"18/04/05","16:20",0.0,18.0,54.9,1010.2,96.5,1.1,2.6,117.6,0.04,8.8,17.0,"16:18:48",1
"18/04/05","16:30",0.0,17.7,54.4,1010.2,113.9,1.3,2.9,123.6,0.03,8.4,17.0,"16:26:00",1
"18/04/05","16:40",0.0,17.9,54.9,1010.4,132.2,1.5,3.1,126.0,0.03,8.8,16.7,"16:32:08",1
"18/04/05","16:50",0.0,18.2,55.6,1010.2,88.9,1.1,2.4,33.7,0.07,9.2,16.8,"16:48:32",1
"18/04/05","17:00",0.0,18.2,55.0,1010.2,37.5,1.1,2.7,49.2,0.10,9.1,16.7,"16:55:12",1
"18/04/05","17:10",0.0,18.0,54.6,1010.2,67.5,0.8,1.7,9.7,0.05,8.8,16.7,"17:02:40",1
"18/04/05","17:20",0.0,17.7,56.4,1010.2,8.5,0.8,2.0,66.4,0.03,9.0,16.6,"17:12:40",1
"18/04/05","17:30",0.0,17.5,56.6,1010.4,11.7,1.1,2.5,22.0,0.02,8.8,16.6,"17:23:52",1
"18/04/05","17:40",0.0,17.4,57.0,1010.9,1.1,0.8,1.9,1.9,0.01,8.8,16.6,"17:34:32",1
"18/04/05","17:50",0.0,17.3,57.5,1010.7,346.7,0.8,2.5,359.3,0.00,8.9,16.2,"17:44:40",1
"18/04/05","18:00",0.0,17.1,58.6,1010.9,330.8,1.0,1.8,336.6,0.00,9.0,16.4,"17:55:04",1
"18/04/05","18:10",0.0,17.0,60.4,1010.9,340.8,1.1,1.6,326.2,0.00,9.3,16.3,"18:06:48",1
"18/04/05","18:20",0.0,16.7,62.7,1010.9,334.2,1.1,1.6,339.8,0.00,9.6,16.1,"18:11:52",1
"18/04/05","18:30",0.0,16.4,64.3,1011.2,325.9,0.8,1.6,324.0,0.00,9.7,16.2,"18:29:36",1
"18/04/05","18:40",0.0,16.1,66.2,1010.9,313.8,1.2,1.6,316.5,0.00,9.8,15.8,"18:35:52",1
"18/04/05","18:50",0.0,15.8,67.5,1010.9,310.3,1.1,1.8,320.0,0.00,9.8,16.0,"18:41:44",1
"18/04/05","19:00",0.0,15.6,67.3,1010.9,300.8,0.7,1.2,309.6,0.00,9.6,15.9,"18:59:36",1
"18/04/05","19:10",0.0,15.7,68.2,1011.4,324.7,1.2,1.7,322.1,0.00,9.9,15.7,"19:08:24",1
"18/04/05","19:20",0.0,15.5,67.7,1011.2,326.7,1.2,1.7,321.6,0.00,9.6,15.7,"19:15:04",1
"18/04/05","19:30",0.0,15.2,68.7,1011.2,311.8,1.2,1.7,319.7,0.00,9.5,15.5,"19:21:12",1
"18/04/05","19:40",0.0,15.2,69.8,1011.2,313.4,1.3,1.9,326.7,0.00,9.8,15.5,"19:36:08",1
"18/04/05","19:50",0.0,15.1,70.4,1011.2,323.0,1.3,1.9,325.2,0.00,9.8,15.3,"19:45:52",1
"18/04/05","20:00",0.0,15.0,71.0,1011.4,312.9,1.2,1.8,318.9,0.00,9.8,15.2,"19:55:20",1
"18/04/05","20:10",0.0,14.9,72.0,1011.2,292.4,1.2,1.8,317.8,0.00,9.9,15.3,"20:07:20",1
"18/04/05","20:20",0.0,14.9,72.2,1010.9,294.0,1.2,1.7,293.7,0.00,10.0,15.2,"20:10:48",1
"18/04/05","20:30",0.0,14.9,72.4,1011.4,284.0,1.2,2.0,321.0,0.00,10.0,15.1,"20:29:12",1
"18/04/05","20:40",0.0,14.7,72.9,1011.6,314.9,1.6,2.8,326.8,0.00,9.9,15.1,"20:31:36",1
"18/04/05","20:50",0.0,14.6,74.0,1011.2,314.1,1.1,2.4,327.7,0.00,10.1,15.2,"20:44:16",1
"18/04/05","21:00",0.0,14.4,75.0,1010.9,294.1,1.1,1.6,321.4,0.00,10.1,15.0,"20:52:00",1
"18/04/05","21:10",0.0,14.4,75.2,1010.9,298.2,1.2,1.7,313.4,0.00,10.1,15.1,"21:06:16",1
"18/04/05","21:20",0.0,14.4,76.1,1010.4,303.6,1.0,1.3,309.5,0.00,10.3,14.9,"21:12:48",1
"18/04/05","21:30",0.0,14.4,75.8,1010.9,300.5,1.1,1.4,319.4,0.00,10.2,14.7,"21:24:08",1
"18/04/05","21:40",0.0,14.4,77.0,1010.7,307.6,1.0,1.4,327.3,0.00,10.5,14.8,"21:31:04",1
"18/04/05","21:50",0.0,14.2,78.2,1010.4,294.6,0.8,1.3,310.6,0.00,10.5,14.7,"21:40:16",1
"18/04/05","22:00",0.0,14.1,79.1,1010.4,287.7,0.8,1.1,274.2,0.00,10.6,14.7,"21:57:04",1
"18/04/05","22:10",0.0,14.2,79.3,1010.0,288.2,1.0,1.6,296.5,0.00,10.7,14.8,"22:02:56",1
"18/04/05","22:20",0.0,14.2,79.5,1010.0,301.4,1.2,1.8,317.3,0.00,10.7,14.8,"22:18:08",1
"18/04/05","22:30",0.0,14.1,80.0,1009.7,300.6,1.2,1.7,323.7,0.00,10.7,14.7,"22:23:04",1
"18/04/05","22:40",0.0,14.1,80.4,1010.0,304.7,1.2,2.0,334.2,0.00,10.8,14.6,"22:38:56",1
"18/04/05","22:50",0.0,13.8,81.0,1010.0,294.1,1.1,1.9,315.1,0.00,10.6,14.6,"22:41:36",1
"18/04/05","23:00",0.0,13.7,82.4,1009.5,311.2,1.2,1.9,293.8,0.00,10.8,14.4,"22:56:56",1
"18/04/05","23:10",0.0,13.8,83.1,1010.0,305.4,1.5,2.7,312.4,0.00,11.0,14.5,"23:03:52",1
"18/04/05","23:20",0.0,14.0,83.2,1009.7,301.0,1.1,1.3,285.2,0.00,11.2,14.5,"23:13:52",1
"18/04/05","23:30",0.0,13.9,83.4,1010.2,290.6,1.2,1.7,294.4,0.00,11.2,14.6,"23:25:44",1
"18/04/05","23:40",0.0,14.1,83.4,1009.7,317.7,1.6,2.5,323.1,0.00,11.4,14.4,"23:36:32",1
"18/04/05","23:50",0.0,14.1,83.1,1009.7,326.5,1.5,2.2,318.8,0.00,11.3,14.5,"23:42:32",1
"18/04/05","24:00",0.0,13.9,84.2,1009.7,304.5,1.2,1.7,331.0,0.00,11.3,14.6,"23:50:56",1
